Theta_e
315 314 312 310 306 311 306 308 304 308 311 322 325 325 329 329 330 334 337 342 339 340 342 342 344 343 342 345 345 343 343 344
313 314 314 311 315 305 306 300 299 303 307 311 318 323 328 328 330 335 339 341 341 340 340 342 343 345 344 343 344 342 343 344
312 310 309 309 308 311 310 308 301 300 306 314 317 326 328 331 333 337 339 339 339 338 342 341 341 343 343 343 342 342 344 345
308 314 315 313 310 311 305 305 308 307 307 322 326 328 329 333 334 338 340 340 337 339 342 340 341 342 342 341 341 342 344 344
306 311 313 310 312 312 312 312 308 299 305 319 322 327 329 334 335 338 341 342 343 341 341 341 342 343 337 338 342 344 345 342
304 307 311 308 309 312 311 306 308 308 309 317 323 326 332 335 338 340 343 343 342 342 342 342 345 345 342 341 341 344 343 342
312 311 313 310 309 309 309 310 307 309 310 316 318 329 333 337 338 338 340 340 339 341 342 343 343 345 345 345 342 343 343 343
310 311 311 309 311 311 311 311 311 312 312 316 319 333 334 336 335 335 337 338 339 339 340 339 342 343 344 345 345 343 341 340
307 312 310 306 310 311 311 313 313 309 319 328 328 329 331 333 335 336 336 335 335 337 337 337 338 341 343 344 346 344 341 341
307 309 299 313 321 319 314 315 317 321 324 325 329 330 331 332 335 334 334 333 333 334 335 336 337 338 339 341 344 343 341 340
304 304 308 312 316 316 315 315 321 322 325 328 331 330 327 332 333 333 332 331 331 332 333 333 333 334 334 336 340 345 339 341
307 301 299 310 322 324 324 311 325 325 326 328 329 320 321 329 331 329 329 329 328 328 327 326 324 329 335 336 338 342 338 338
304 303 307 321 321 322 308 314 326 326 328 329 327 327 327 328 329 328 327 326 324 322 320 321 321 321 319 320 321 325 324 321
306 303 299 322 319 311 326 329 327 328 333 328 327 326 326 326 325 324 323 322 319 317 316 316 317 314 311 311 313 315 315 315
313 313 326 327 330 332 333 330 330 331 330 328 325 324 324 322 321 320 319 316 315 314 313 313 313 312 308 309 310 311 309 308
314 320 324 326 328 331 331 329 330 331 329 327 325 324 322 320 320 317 315 313 312 311 311 310 312 311 310 310 310 309 308 308
313 321 324 326 328 329 329 330 329 329 328 325 324 323 321 321 318 315 313 313 312 311 311 311 314 314 315 315 314 312 312 310
309 321 322 325 329 329 327 326 326 324 324 324 323 321 321 318 317 315 313 313 311 312 313 313 314 314 317 317 314 312 309 308
321 320 326 329 329 328 326 326 325 325 324 322 322 322 321 318 318 315 314 314 313 314 315 316 318 316 318 319 316 314 313 310
Wind_Speed
19 16 18 13 17 19 19 13 11 14 6 14 10 8 8 8 8 8 10 16 12 12 10 7 7 6 4 6 3 2 2 2
13 12 19 19 13 14 11 15 13 11 9 1 14 13 11 9 8 9 9 16 13 11 11 7 6 5 4 3 5 1 2 0
12 12 14 12 13 14 17 12 12 12 3 13 20 13 14 10 10 11 11 13 10 11 8 6 6 5 3 5 4 1 5 2
14 16 17 16 18 18 11 13 8 11 8 8 8 9 13 13 9 11 13 9 12 10 10 7 6 5 7 2 5 3 3 1
15 13 7 10 16 18 18 14 6 10 14 8 9 9 10 13 9 8 13 12 9 7 7 5 5 5 8 7 3 4 3 2
12 8 5 18 17 15 12 12 14 10 5 7 12 18 16 13 11 10 9 9 9 7 5 4 2 6 5 8 4 7 2 4
18 11 9 9 15 18 18 18 17 5 6 8 13 11 16 15 14 11 10 9 8 6 5 5 5 2 4 4 4 3 8 10
18 14 9 10 13 15 14 18 16 15 13 26 33 15 15 15 13 12 11 10 6 4 1 2 5 6 4 6 5 5 5 5
15 14 19 14 15 17 18 16 16 9 8 18 15 14 12 11 12 14 12 6 3 1 2 4 4 5 8 4 5 6 7 8
14 14 17 1 5 11 8 12 9 2 0 11 14 12 11 9 13 10 8 5 3 4 5 7 9 9 9 10 9 5 8 10
14 13 13 8 4 3 5 10 7 4 7 18 20 17 11 8 7 7 6 5 5 7 7 8 9 9 9 8 10 9 7 9
13 16 19 10 11 4 2 7 6 7 11 18 16 9 8 10 9 7 6 6 5 7 8 8 9 10 8 6 9 9 1 8
15 14 9 13 7 2 9 5 5 2 7 12 10 6 15 10 8 8 6 6 7 7 7 8 9 8 8 10 9 11 13 16
16 17 19 8 5 6 9 5 4 6 15 16 15 15 13 10 8 8 8 7 8 7 8 9 9 8 10 12 9 11 13 15
8 6 7 6 9 6 7 7 6 8 11 13 13 12 11 10 9 8 7 7 7 7 9 9 10 9 12 10 10 11 14 15
6 7 8 7 6 7 5 8 7 9 11 10 12 11 11 9 8 8 7 7 7 8 9 11 10 11 12 12 12 14 16 15
4 10 7 6 8 13 10 8 9 9 10 11 12 12 11 10 9 8 8 8 7 8 9 10 9 11 10 11 12 14 15 14
4 6 10 16 11 13 12 10 9 11 11 10 12 11 11 10 11 9 10 9 10 10 12 11 11 10 11 12 14 15 16 12
5 16 6 18 15 13 13 13 12 11 11 12 12 12 12 10 11 12 12 12 11 9 10 11 13 15 14 14 12 12 15 14
Wind_Direction
194 206 240 182 225 246 277 280 266 190 195 150 124 155 151 175 166 157 169 128 155 154 144 143 120 124 71 102 74 81 176 285
202 223 215 248 192 229 238 263 276 231 263 344 179 166 157 158 164 155 165 138 165 139 127 124 127 116 124 103 118 39 318 106
145 216 206 207 227 236 244 232 276 259 209 111 286 145 154 155 157 158 168 160 147 125 127 127 109 109 138 116 110 154 325 315
193 206 220 232 209 236 245 228 280 356 8 156 55 135 142 142 158 166 160 159 123 134 159 161 140 116 113 42 136 138 282 280
249 206 195 248 250 216 228 256 252 140 249 221 119 168 146 134 144 157 122 129 143 148 147 145 108 104 73 258 133 159 222 213
225 271 265 197 244 226 239 241 242 197 292 280 191 145 133 131 139 111 132 148 168 157 147 169 114 128 176 256 245 148 183 253
260 268 271 283 197 234 224 242 258 251 286 262 7 135 131 129 123 140 152 179 139 170 177 208 236 177 188 216 210 209 173 234
269 246 232 254 265 273 262 236 252 285 313 114 211 122 129 140 145 157 151 114 113 80 54 329 316 305 238 190 214 198 230 211
248 240 247 219 235 243 245 261 274 270 56 116 125 124 122 134 157 130 127 139 169 191 318 328 309 305 295 292 211 227 201 208
256 239 235 6 39 328 288 256 260 92 176 152 124 108 116 126 105 125 140 133 87 7 353 352 343 328 326 308 286 237 206 205
256 252 259 140 177 160 237 257 220 232 164 126 111 109 86 99 126 102 87 66 26 3 349 341 334 321 291 263 260 233 218 192
248 239 246 283 80 47 74 240 120 195 176 143 157 192 137 154 139 119 84 56 29 11 12 4 349 335 311 277 251 224 96 70
235 254 249 103 111 131 237 67 36 265 160 165 176 46 132 139 116 101 92 71 50 41 28 14 14 27 39 57 50 70 76 80
229 228 226 89 187 263 70 81 60 76 71 89 108 118 129 127 119 112 94 73 56 55 46 35 44 61 61 57 59 79 87 89
351 53 66 29 69 79 100 101 101 109 109 121 127 128 126 124 123 95 86 77 65 69 66 56 54 68 80 68 71 79 84 83
135 137 101 120 122 112 101 99 118 104 125 132 127 125 122 127 112 105 101 98 89 84 78 78 75 81 84 86 89 90 89 89
222 117 126 121 109 97 110 117 116 117 112 125 127 123 124 122 110 110 109 105 104 103 95 79 78 85 99 102 101 97 95 90
351 245 196 140 128 125 131 133 117 120 120 118 125 127 131 118 121 122 119 114 109 102 98 96 99 100 108 111 111 109 104 104
93 352 294 134 136 151 137 132 132 135 136 135 136 137 123 125 122 123 119 119 116 118 126 121 110 107 112 112 110 107 108 114